Akron Canton, OH

5:22 PM EST on November 11, 2019 (GMT -0500)
Akron-Canton Regional

Weather History for KCAK - October, 2019

Change the Weather History Date:

Monday, October 14, 2019

  Actual Average Record
Temperature  
Mean Temperature 52 °F 52 °F  
Max Temperature 61 °F 62 °F 83 °F (1897)
Min Temperature 42 °F 43 °F 23 °F (1895)
Degree Days  
Heating Degree Days 13 13  
Month to date heating degree days 80 152  
Since 1 July heating degree days 80 291  
Cooling Degree Days 0 0  
Month to date cooling degree days 41 3  
Year to date cooling degree days 1088 649  
Growing Degree Days 2 (Base 50)    
Moisture  
Dew Point 37 °F    
Average Humidity 66    
Maximum Humidity 89    
Minimum Humidity 42    
Precipitation  
Precipitation 0.00 in 0.09 in 1.15 in (1954)
Month to date precipitation 0.40 1.29  
Year to date precipitation 35.57 31.94  
Snow  
Snow 0.00 in 0.00 in - ()
Month to date snowfall 0.0 0.0  
Since 1 July snowfall 0.0 0.0  
Since 1 September snowfall 0.0 0.0  
Snow Depth 0.00 in    
Sea Level Pressure  
Sea Level Pressure 30.02 in    
Wind  
Wind Speed 10 mph (West)    
Max Wind Speed 21 mph    
Max Gust Speed 26 mph    
Visibility 10 miles    
Events Rain    
T = Trace of Precipitation, MM = Missing Value Source: NWS Daily Summary

Daily Weather History Graph

Daily Weather History Graph

Search for Another Location

Airport or City:

Astronomy

Oct. 14, 2019 Rise Set
Actual Time 7:35 AM EDT 6:47 PM EDT
Civil Twilight 7:08 AM EDT 7:14 PM EDT
Nautical Twilight 6:36 AM EDT 7:46 PM EDT
Astronomical Twilight 6:04 AM EDT 8:18 PM EDT
Moon 7:36 PM EDT (10/14) 8:06 AM EDT (10/14)
Length of Visible Light 12h 06m
Length of Day
11h 11m
Waxing Gibbous, 99% of the Moon is Illuminated
Oct 14
Waxing Gibbous
Oct 21
Last Quarter
Oct 27
New
Nov 4
First Quarter
Nov 12
Full

Hourly Weather History & Observations

Time (EDT) Temp. Windchill Dew Point Humidity Pressure Visibility Wind Dir Wind Speed Gust Speed Precip Events Conditions
12:51 AM 54.0 °F - 39.0 °F 57% 29.91 in 10.0 mi SW 11.5 mph - N/A   Clear
1:51 AM 54.0 °F - 37.9 °F 55% 29.90 in 10.0 mi SW 12.7 mph - N/A   Clear
2:51 AM 54.0 °F - 37.9 °F 55% 29.91 in 10.0 mi WSW 9.2 mph - N/A   Partly Cloudy
3:51 AM 51.1 °F - 37.9 °F 61% 29.91 in 10.0 mi WSW 6.9 mph - N/A   Partly Cloudy
4:51 AM 48.9 °F - 37.9 °F 66% 29.93 in 10.0 mi WSW 5.8 mph - N/A   Clear
5:51 AM 46.0 °F 43.1 °F 37.0 °F 71% 29.95 in 10.0 mi West 5.8 mph - N/A   Clear
6:51 AM 44.1 °F 40.8 °F 37.9 °F 79% 29.99 in 10.0 mi West 5.8 mph - N/A   Clear
7:51 AM 43.0 °F 40.3 °F 39.0 °F 86% 30.01 in 10.0 mi WNW 4.6 mph - N/A   Clear
8:51 AM 48.9 °F - 39.0 °F 69% 30.03 in 10.0 mi West 5.8 mph - N/A   Clear
9:51 AM 52.0 °F - 39.0 °F 61% 30.04 in 10.0 mi West 9.2 mph - N/A   Partly Cloudy
10:51 AM 55.0 °F - 37.0 °F 51% 30.04 in 10.0 mi West 10.4 mph - N/A   Partly Cloudy
11:51 AM 57.0 °F - 36.0 °F 45% 30.05 in 10.0 mi West 16.1 mph 23.0 mph N/A   Scattered Clouds
12:51 PM 60.1 °F - 37.0 °F 42% 30.04 in 10.0 mi West 16.1 mph 21.9 mph 0.00 in Rain Light Rain
1:51 PM 57.0 °F - 36.0 °F 45% 30.04 in 10.0 mi WNW 13.8 mph 23.0 mph N/A   Scattered Clouds
2:51 PM 61.0 °F - 37.0 °F 41% 30.03 in 10.0 mi West 19.6 mph 26.5 mph N/A   Mostly Cloudy
3:51 PM 60.1 °F - 37.0 °F 42% 30.03 in 10.0 mi WNW 13.8 mph - N/A   Scattered Clouds
4:51 PM 60.1 °F - 37.9 °F 44% 30.04 in 10.0 mi West 15.0 mph - N/A   Partly Cloudy
5:51 PM 59.0 °F - 37.0 °F 44% 30.06 in 10.0 mi WNW 9.2 mph - N/A   Partly Cloudy
6:51 PM 53.1 °F - 37.0 °F 55% 30.08 in 10.0 mi NW 8.1 mph - N/A   Clear
7:51 PM 50.0 °F - 37.0 °F 61% 30.10 in 10.0 mi NW 4.6 mph - N/A   Partly Cloudy
8:51 PM 50.0 °F - 36.0 °F 59% 30.11 in 10.0 mi North 4.6 mph - N/A   Partly Cloudy
9:51 PM 48.0 °F - 37.0 °F 66% 30.12 in 10.0 mi NNE 3.5 mph - N/A   Partly Cloudy
10:51 PM 46.0 °F - 37.0 °F 71% 30.13 in 10.0 mi Calm Calm - N/A   Partly Cloudy
11:51 PM 44.1 °F - 37.0 °F 76% 30.13 in 10.0 mi Calm Calm - N/A   Partly Cloudy